Location: Hurecourt
(47.9030°N, 6.0653°E)
Time: 06:40:16
(UTC+00:00)

Cosmos 1241 Rocket - Visible Passes

Search period start: 20 October 2020 00:00
Search period end: 30 October 2020 00:00
Orbit: 931 x 1017 km, 65.8° (Epoch: 19 October)

Date Brightness Start Highest point End Pass type
(mag) Time Alt. Az. Time Alt. Az. Time Alt. Az.
20 Oct 6.3 02:32:38 21° SE 02:32:38 21° SE 02:34:37 10° SE visible
20 Oct 6.0 04:17:23 19° SW 04:17:23 19° SW 04:19:53 10° SSW visible
20 Oct 4.6 17:41:28 10° SSW 17:47:34 55° ESE 17:53:51 10° NE visible
20 Oct 5.7 19:29:33 10° WSW 19:35:29 40° NW 19:40:03 17° NNE visible
20 Oct 6.8 21:20:48 10° NW 21:24:40 18° NNW 21:24:40 18° NNW visible
21 Oct 6.7 02:59:04 12° SSE 02:59:04 12° SSE 02:59:34 10° SSE visible
21 Oct 4.5 18:06:17 10° SW 18:12:37 88° NW 18:19:08 10° NE visible
21 Oct 6.2 19:55:46 10° W 20:01:10 28° NNW 20:04:40 18° NNE visible
21 Oct 7.0 21:47:19 10° NW 21:49:17 14° NNW 21:49:17 14° NNW visible
22 Oct 5.1 18:31:41 10° SW 18:37:53 55° NW 18:44:18 10° NNE visible
22 Oct 6.6 20:22:18 10° WNW 20:27:03 21° NNW 20:29:12 18° N visible
22 Oct 7.3 22:13:25 10° NNW 22:13:49 11° NNW 22:13:49 11° NNW visible
23 Oct 4.6 17:09:08 10° SSW 17:15:20 63° ESE 17:21:44 10° NE visible
23 Oct 5.8 18:57:35 10° WSW 19:03:24 36° NW 19:09:05 11° NNE visible
23 Oct 6.7 20:48:57 10° NW 20:53:06 17° NNW 20:53:41 17° N visible
24 Oct 4.7 17:34:07 10° SW 17:40:27 79° NW 17:46:59 10° NE visible
24 Oct 6.3 19:23:53 10° W 19:29:08 26° NNW 19:33:32 14° NNE visible
24 Oct 6.9 21:15:24 10° NW 21:18:08 15° NNW 21:18:08 15° NNW visible
25 Oct 5.3 17:59:38 10° WSW 18:05:47 50° NW 18:12:06 10° NNE visible
25 Oct 6.6 19:50:28 10° WNW 19:55:04 20° NNW 19:57:57 15° NNE visible
25 Oct 7.1 21:41:23 10° NNW 21:42:33 13° NNW 21:42:33 13° NNW visible
26 Oct 6.0 18:25:38 10° W 18:31:20 33° NW 18:37:11 10° NNE visible
26 Oct 6.7 20:17:05 10° NW 20:21:08 17° N 20:22:20 16° N visible
27 Oct 4.8 17:01:58 10° SW 17:08:17 71° NW 17:14:48 10° NE visible
27 Oct 6.4 18:52:01 10° W 18:57:07 24° NNW 19:02:07 11° NNE visible
27 Oct 6.8 20:43:27 10° NW 20:46:43 16° N 20:46:43 16° N visible
28 Oct 5.5 17:27:36 10° WSW 17:33:40 45° NW 17:39:55 10° NNE visible
28 Oct 6.6 19:18:37 10° WNW 19:23:05 19° NNW 19:26:29 13° NNE visible
28 Oct 7.0 21:09:20 10° NNW 21:11:04 14° NNW 21:11:04 14° NNW visible
29 Oct 6.0 17:53:41 10° W 17:59:18 31° NNW 18:05:00 10° NNE visible
29 Oct 6.6 19:45:13 10° NW 19:49:11 16° N 19:50:50 15° N visible
29 Oct 7.2 21:34:47 10° NNW 21:35:25 12° NNW 21:35:25 12° NNW visible
